Weather History for Newcastle, WY

Change the Weather History Date:

Wednesday, September 25, 2013

  Actual Average (KCUT) Record (KCUT)
Temperature  
Mean Temperature 65 °F 50 °F  
Max Temperature 80 °F 63 °F 85 °F (1967)
Min Temperature 50 °F 37 °F 21 °F (1985)
Degree Days  
Heating Degree Days 0 15  
Month to date heating degree days 251  
Since 1 July heating degree days 405  
Cooling Degree Days 0 0  
Month to date cooling degree days 11  
Year to date cooling degree days 177  
Growing Degree Days 15 (Base 50)    
Moisture  
Dew Point 36 °F    
Average Humidity 41    
Maximum Humidity 87    
Minimum Humidity 16    
Precipitation  
Precipitation 0.00 in 0.04 in 1.73 in (1929)
Month to date precipitation 1.39  
Year to date precipitation 16.31  
Sea Level Pressure  
Sea Level Pressure 29.64 in    
Wind  
Wind Speed 13 mph (East)    
Max Wind Speed 23 mph    
Max Gust Speed 29 mph    
T = Trace of Precipitation, MM = Missing Value Source: NWS Daily Summary

Daily Weather History Graph

Daily Weather History Graph

Search for Another Location

Airport:

Trip Planner

Search our weather history database for the weather conditions in past years. The results will help you decide how hot, cold, wet, or windy it might be!

Date:

Astronomy

Sep. 25, 2013 Rise Set
Actual Time 6:48 AM MDT 6:48 PM MDT
Civil Twilight 6:19 AM MDT 7:17 PM MDT
Nautical Twilight 5:45 AM MDT 7:50 PM MDT
Astronomical Twilight 5:11 AM MDT 8:24 PM MDT
Moon 10:46 PM MDT (9/25) 1:06 PM MDT (9/25)
Length of Visible Light 12h 57m
Length of Day
12h 00m
Waning Gibbous, 63% of the Moon is Illuminated
Sep 25
Waning Gibbous
Sep 26
Last Quarter
Oct 4
New
Oct 11
First Quarter
Oct 18
Full

Hourly Weather History & Observations

Time (MDT) Temp. Dew Point Humidity Pressure Visibility Wind Dir Wind Speed Gust Speed Precip Events Conditions
12:15 AM 60.8 °F 37.4 °F 42% 29.80 in - ESE 17.3 mph 24.2 mph N/A   Clear
12:35 AM 60.8 °F 37.4 °F 42% 29.79 in - ESE 18.4 mph 23.0 mph N/A   Clear
12:55 AM 59.0 °F 37.4 °F 45% 29.80 in - ESE 15.0 mph - N/A   Clear
1:15 AM 60.8 °F 35.6 °F 39% 29.79 in - ESE 16.1 mph 20.7 mph N/A   Clear
1:35 AM 60.8 °F 35.6 °F 39% 29.79 in - ESE 17.3 mph - N/A   Clear
1:55 AM 60.8 °F 35.6 °F 39% 29.79 in - ESE 13.8 mph 20.7 mph N/A   Clear
2:15 AM 59.0 °F 35.6 °F 42% 29.78 in - ESE 12.7 mph - N/A   Clear
2:35 AM 59.0 °F 35.6 °F 42% 29.78 in - ESE 16.1 mph 20.7 mph N/A   Clear
2:55 AM 59.0 °F 35.6 °F 42% 29.77 in - ESE 9.2 mph - N/A   Clear
3:15 AM 59.0 °F 35.6 °F 42% 29.76 in - ESE 11.5 mph - N/A   Clear
3:35 AM 57.2 °F 35.6 °F 44% 29.76 in - ESE 10.4 mph - N/A   Clear
3:55 AM 57.2 °F 35.6 °F 44% 29.75 in - ESE 12.7 mph - N/A   Clear
4:15 AM 57.2 °F 35.6 °F 44% 29.74 in - ESE 9.2 mph - N/A   Clear
4:35 AM 59.0 °F 33.8 °F 39% 29.74 in - ESE 9.2 mph 17.3 mph N/A   Clear
4:55 AM 55.4 °F 33.8 °F 44% 29.74 in - ESE 9.2 mph - N/A   Clear
5:15 AM 55.4 °F 33.8 °F 44% 29.74 in - ESE 9.2 mph - N/A   Clear
5:35 AM 57.2 °F 33.8 °F 41% 29.73 in - ESE 12.7 mph - N/A   Clear
5:55 AM 57.2 °F 33.8 °F 41% 29.72 in - ESE 10.4 mph - N/A   Clear
6:15 AM 55.4 °F 33.8 °F 44% 29.72 in - ESE 9.2 mph - N/A   Clear
6:35 AM 55.4 °F 33.8 °F 44% 29.71 in - ESE 9.2 mph - N/A   Clear
6:55 AM 55.4 °F 33.8 °F 44% 29.70 in - ESE 10.4 mph - N/A   Clear
7:15 AM 55.4 °F 33.8 °F 44% 29.71 in - ESE 5.8 mph - N/A   Clear
7:35 AM 55.4 °F 33.8 °F 44% 29.70 in - ESE 4.6 mph - N/A   Clear
7:55 AM 59.0 °F 33.8 °F 39% 29.70 in - ESE 8.1 mph - N/A   Clear
8:15 AM 60.8 °F 32.0 °F 34% 29.69 in - SE 5.8 mph - N/A   Clear
8:35 AM 62.6 °F 32.0 °F 32% 29.69 in - SE 10.4 mph - N/A   Clear
8:55 AM 64.4 °F 32.0 °F 30% 29.69 in - SE 12.7 mph - N/A   Clear
9:15 AM 64.4 °F 32.0 °F 30% 29.68 in - SE 11.5 mph - N/A   Clear
9:35 AM 64.4 °F 32.0 °F 30% 29.68 in - SE 10.4 mph - N/A   Clear
9:55 AM 68.0 °F 32.0 °F 26% 29.67 in - North - - N/A   Clear
10:15 AM 68.0 °F 32.0 °F 26% 29.67 in - North - - N/A   Clear
10:35 AM 69.8 °F 32.0 °F 25% 29.66 in - North - - N/A   Clear
10:55 AM 69.8 °F 32.0 °F 25% 29.65 in - North - - N/A   Clear
11:15 AM 69.8 °F 32.0 °F 25% 29.64 in - SSE 8.1 mph - N/A   Clear
11:35 AM 71.6 °F 32.0 °F 23% 29.63 in - SSE 6.9 mph - N/A   Clear
11:55 AM 71.6 °F 32.0 °F 23% 29.62 in - SSE 9.2 mph - N/A   Clear
12:15 PM 71.6 °F 32.0 °F 23% 29.61 in - SE 8.1 mph - N/A   Clear
12:35 PM 73.4 °F 32.0 °F 22% 29.60 in - SSE 6.9 mph - N/A   Clear
12:55 PM 75.2 °F 32.0 °F 21% 29.58 in - North - - N/A   Clear
1:15 PM 77.0 °F 32.0 °F 19% 29.56 in - ESE 6.9 mph - N/A   Clear
1:35 PM 78.8 °F 28.4 °F 16% 29.55 in - North - - N/A   Clear
1:55 PM 78.8 °F 30.2 °F 17% 29.54 in - SE 10.4 mph 17.3 mph N/A   Clear
2:15 PM 78.8 °F 28.4 °F 16% 29.52 in - SE 8.1 mph 18.4 mph N/A   Clear
2:55 PM 80.6 °F 30.2 °F 16% 29.50 in - SE 15.0 mph 21.9 mph N/A   Clear
3:15 PM 78.8 °F 30.2 °F 17% 29.49 in - SSE 16.1 mph 28.8 mph N/A   Clear
3:35 PM 78.8 °F 32.0 °F 18% 29.47 in - SE 18.4 mph 25.3 mph N/A   Clear
3:55 PM 77.0 °F 32.0 °F 19% 29.46 in - North - - N/A   Clear
4:15 PM 75.2 °F 33.8 °F 22% 29.45 in - SE 20.7 mph - N/A Thunderstorm Thunderstorm
4:35 PM 73.4 °F 35.6 °F 25% 29.47 in - SE 17.3 mph - N/A Thunderstorm Thunderstorm
4:55 PM 71.6 °F 37.4 °F 29% 29.52 in - WNW 23.0 mph - N/A Thunderstorm Thunderstorm
5:15 PM 64.4 °F 41.0 °F 42% 29.53 in - NNW 13.8 mph 20.7 mph N/A   Clear
5:35 PM 62.6 °F 41.0 °F 45% 29.52 in - North 15.0 mph 23.0 mph N/A   Clear
5:55 PM 62.6 °F 39.2 °F 42% 29.52 in - NNE 9.2 mph - N/A   Clear
6:15 PM 64.4 °F 37.4 °F 37% 29.52 in - NNE 11.5 mph 17.3 mph N/A   Clear
6:35 PM 64.4 °F 37.4 °F 37% 29.52 in - North 12.7 mph 18.4 mph N/A   Clear
6:55 PM 64.4 °F 39.2 °F 40% 29.52 in - North 4.6 mph - N/A   Clear
7:15 PM 62.6 °F 41.0 °F 45% 29.56 in - WNW 13.8 mph 19.6 mph N/A   Clear
7:35 PM 60.8 °F 42.8 °F 52% 29.54 in - North 16.1 mph - N/A   Clear
7:55 PM 62.6 °F 41.0 °F 45% 29.57 in - NW 12.7 mph - N/A Thunderstorm Thunderstorm
8:15 PM 57.2 °F 46.4 °F 67% 29.58 in - NNW 10.4 mph - N/A   Scattered Clouds
8:35 PM 59.0 °F 44.6 °F 59% 29.57 in - NNW 17.3 mph - N/A   Clear
8:55 PM 59.0 °F 44.6 °F 59% 29.57 in - North 16.1 mph 26.5 mph N/A   Clear
9:15 PM 55.4 °F 46.4 °F 72% 29.58 in - NNW 15.0 mph - N/A   Clear
9:35 PM 53.6 °F 46.4 °F 77% 29.59 in - NNW 17.3 mph - N/A   Clear
9:55 PM 53.6 °F 46.4 °F 77% 29.58 in - NNW 12.7 mph - N/A   Clear
10:15 PM 53.6 °F 46.4 °F 77% 29.58 in - NW 16.1 mph - N/A   Clear
10:35 PM 53.6 °F 46.4 °F 77% 29.59 in - NW 20.7 mph 24.2 mph N/A   Clear
10:55 PM 51.8 °F 46.4 °F 82% 29.57 in - NW 20.7 mph 26.5 mph N/A   Clear
11:15 PM 50.0 °F 46.4 °F 87% 29.58 in - NNW 17.3 mph 25.3 mph N/A   Unknown
11:35 PM 51.8 °F 46.4 °F 82% 29.59 in - NNW 10.4 mph - N/A   Clear
11:55 PM 50.0 °F 46.4 °F 87% 29.61 in - NW 15.0 mph 23.0 mph N/A   Unknown